Location: Claflin County Park
(44.8478°N, 87.5507°W)
Time: 07:50:18
(UTC+00:00)

USA 234 - Pass Details

Date: 15 March 2026
Orbit: 1102 x 1106 km, 123.0° (Epoch: 4 January)

Event Time Altitude Azimuth Distance (km) Brightness Sun altitude
Exits shadow 03:46:12 50° 317° (NW) 1,387 3.9 -38.2°
Drops below altitude 10° 03:50:49 10° 310° (NW) 2,969 6.2 -38.8°
Sets 03:53:18 0° 310° (NW) 3,930 7.1 -39.1°
